Hourly Weather Roundup
Issued by NWS Central Illinois

Home | Current Version | Previous Version | Text Only | Print | Product List | Glossary On
Versions: 1 2 3 4 5 6 7 8 9 10 11 12 13 14 15 16 17 18 19 20 21 22 23 24 25 26 27 28 29 30 31 32 33 34 35 36 37 38 39 40 41 42 43 44 45 46 47 48 49 50
000
NZUS43 KILX 310610
HWRILX

AREA WEATHER ROUNDUP
NATIONAL WEATHER SERVICE, LINCOLN IL
100 AM CDT THU JUL 31 2014


CITY           SKY/WX    TMP DP  RH WIND       PRES   REMARKS
BLOOMINGTON    CLEAR     64  57  78 CALM      30.08S
CHAMPAIGN      CLEAR     61  59  93 W3        30.07S
6HR MIN TEMP:  61; 6HR MAX TEMP:  75;

DECATUR        CLEAR     63  59  87 SW3       30.07S
6HR MIN TEMP:  63; 6HR MAX TEMP:  78;

FLORA          PTCLDY    66  60  81 W5        30.08S
6HR MIN TEMP:  62; 6HR MAX TEMP:  76;

GALESBURG      CLEAR     59  57  94 CALM      30.07S
JACKSONVILLE   CLEAR     61  60  96 CALM      30.09S
6HR MIN TEMP:  61; 6HR MAX TEMP:  78;

LACON          CLEAR     61  58  91 CALM      30.05S
6HR MIN TEMP:  60; 6HR MAX TEMP:  78;

LAWRENCEVILLE  PTCLDY    63  61  93 S3        30.08R
6HR MIN TEMP:  63; 6HR MAX TEMP:  77;

LITCHFIELD     CLEAR     59  57  94 CALM      30.08S
$$


CITY           SKY/WX    TMP DP  RH WIND       PRES   REMARKS
LINCOLN        CLEAR     62  58  87 CALM      30.05S
6HR MIN TEMP:  62; 6HR MAX TEMP:  79;

MACOMB           N/A     58  57  97 W5        30.10S
MATTOON        CLEAR     63  60  90 CALM      30.07S
6HR MIN TEMP:  62; 6HR MAX TEMP:  74;

MT CARMEL AP   PTCLDY    63  61  94 W3        30.08R
OLNEY-NOBLE AP CLEAR     61  61 100 CALM      30.08S
PARIS          CLEAR     58  58  97 CALM      30.07S
6HR MIN TEMP:  58; 6HR MAX TEMP:  75;

PEORIA         CLEAR     66  58  75 CALM      30.07R
6HR MIN TEMP:  65; 6HR MAX TEMP:  80;

PONTIAC        CLEAR     57  57 100 CALM      30.06S
RANTOUL        CLEAR     64  59  85 W5        30.07S
6HR MIN TEMP:  62; 6HR MAX TEMP:  76;

ROBINSON       CLEAR     65  63  93 CALM      30.08S
6HR MIN TEMP:  62; 6HR MAX TEMP:  77;

SPRINGFIELD    CLEAR     63  60  90 SW5       30.08S
6HR MIN TEMP:  61; 6HR MAX TEMP:  78;

TAYLORVILLE    CLEAR     59  59 100 CALM      30.08S FOG
$$

...REGIONAL REPORTS...


CITY           SKY/WX    TMP DP  RH WIND       PRES   REMARKS
CHICAGO O`HARE CLEAR     62  55  77 S5        30.04R
KANKAKEE       CLEAR     59  58  97 CALM      30.06S FOG
MOLINE         CLEAR     62  58  86 CALM      30.06S
MOUNT VERNON   PTCLDY    61  55  82 CALM      30.09S
PITTSFIELD     CLEAR     61  58  91 CALM      30.10S
QUINCY         CLEAR     65  59  81 CALM      30.09S
ROCKFORD       CLEAR     59  55  87 S3        30.06F
$$


CITY           SKY/WX    TMP DP  RH WIND       PRES   REMARKS
BURLINGTON     CLEAR     63  60  90 NW5       30.07S
CEDAR RAPIDS   CLEAR     61  59  93 SW5       30.07S
DES MOINES     CLEAR     67  56  67 CALM      30.09S
KIRKSVILLE     CLEAR     58  56  93 CALM      30.11S FOG
OTTUMWA        CLEAR     59  57  93 W3        30.09R
ST LOUIS       MOCLDY    73  59  61 CALM      30.08S
$$


CITY           SKY/WX    TMP DP  RH WIND       PRES   REMARKS
TERRE HAUTE    CLEAR     61  58  90 CALM      30.07R
EVANSVILLE     MOCLDY    67  60  78 CALM      30.09R
INDIANAPOLIS   CLEAR     63  61  93 SW3       30.05S
LAFAYETTE      PTCLDY    61  60  97 CALM      30.05R
MADISON        PTCLDY    65  54  67 W3        30.02F
MILWAUKEE      PTCLDY    61  55  81 SW6       30.01F
$$




USA.gov is the U.S. government's official web portal to all federal, state and local government web resources and services.